Find Starlink 36964

NORAD ID: 68184 Int'l Des: 2026-050 Owner: SPXS Country: US Constellation: starlink operational
LEOCIRCULAR

リアルタイム位置

3D地球を読み込み中...

Starlink 36964について

説明を読み込み中...

次回通過

Passes for default location (London). Set your location on the main map for personalized predictions.

高度履歴

Loading altitude history...

軌道要素

1 68184U 26050T 26121.11604167 .00066729 00000-0 16970-2 0 9993
2 68184 53.1602 24.3869 0000923 135.5689 224.5390 15.39012859 8690
Epoch: May 1, 2026 • Age: 7 hours

現在のステータス

高度 452.0 km
速度 7.65 km/s
衛星直下点 40.50°N, 160.75°E
打ち上げ日 Mar 14, 2026
運用期間 0.1 years
タイプ internet

技術仕様

分類 Payload
質量 575.00 kg
乾燥質量 530.00 kg
総質量 575.00 kg
長さ 0.30 m
直径 4.10 m
スパン 29.00 m
形状 Box + pan
製造者 SPXS
バスタイプ Starlink V2MO
フェーズステータス In Orbit
所有者/国 SPXS/US

Most Searched